Weather History for Shaw AFB, SC

Change the Weather History Date:

Thursday, April 3, 2014

  Actual Average Record
Temperature  
Mean Temperature 72 °F -  
Max Temperature 86 °F 70 °F 86 °F (2002)
Min Temperature 57 °F 47 °F 36 °F (2011)
Cooling Degree Days 6    
Growing Degree Days 22 (Base 50)    
Moisture  
Dew Point 47 °F    
Average Humidity 47    
Maximum Humidity 74    
Minimum Humidity 17    
Precipitation  
Precipitation 0.00 in - - ()
Sea Level Pressure  
Sea Level Pressure 30.01 in    
Wind  
Wind Speed 8 mph (SSW)    
Max Wind Speed 18 mph    
Max Gust Speed 23 mph    
Visibility 10 miles    
Events      
Averages and records for this station are not official NWS values.
T = Trace of Precipitation, MM = Missing Value Source: NWS Daily Summary

Daily Weather History Graph

Daily Weather History Graph

Search for Another Location

Airport:

Trip Planner

Search our weather history database for the weather conditions in past years. The results will help you decide how hot, cold, wet, or windy it might be!

Date:

Astronomy

Apr. 03, 2014 Rise Set
Actual Time 7:06 AM EDT 7:44 PM EDT
Civil Twilight 6:41 AM EDT 8:09 PM EDT
Nautical Twilight 6:11 AM EDT 8:39 PM EDT
Astronomical Twilight 5:41 AM EDT 9:09 PM EDT
Moon 9:43 AM EDT (4/3) 11:52 PM EDT (4/3)
Length of Visible Light 13h 28m
Length of Day
12h 37m
Waxing Crescent, 17% of the Moon is Illuminated
Apr 3
Waxing Crescent
Apr 7
First Quarter
Apr 15
Full
Apr 22
Last Quarter
Apr 29
New

Hourly Weather History & Observations

Time (EDT) Temp. Dew Point Humidity Pressure Visibility Wind Dir Wind Speed Gust Speed Precip Events Conditions
12:58 AM 62.8 °F 49.8 °F 63% 30.07 in 10.0 mi SW 5.8 mph - N/A   Clear
1:58 AM 62.8 °F 49.5 °F 62% 30.05 in 10.0 mi SSW 10.4 mph - N/A   Clear
2:58 AM 61.7 °F 48.9 °F 63% 30.04 in 10.0 mi SSW 9.2 mph - N/A   Clear
3:58 AM 61.0 °F 48.6 °F 64% 30.03 in 10.0 mi SSW 9.2 mph - N/A   Clear
4:58 AM 60.3 °F 48.7 °F 66% 30.03 in 10.0 mi SSW 8.1 mph - N/A   Clear
5:58 AM 57.6 °F 48.7 °F 72% 30.03 in 10.0 mi South 5.8 mph - N/A   Clear
6:36 AM 57.2 °F 48.2 °F 72% 30.04 in 10.0 mi South 4.6 mph - N/A   Light Drizzle
6:45 AM 57.2 °F 48.2 °F 72% 30.04 in 10.0 mi South 4.6 mph - N/A   Partly Cloudy
6:58 AM 57.2 °F 48.9 °F 74% 30.05 in 10.0 mi South 4.6 mph - 0.00 in   Clear
7:58 AM 58.8 °F 50.0 °F 73% 30.07 in 10.0 mi South 3.5 mph - N/A   Clear
8:58 AM 63.7 °F 51.3 °F 64% 30.08 in 10.0 mi SSW 8.1 mph - N/A   Scattered Clouds
9:58 AM 70.0 °F 51.4 °F 52% 30.09 in 10.0 mi WSW 10.4 mph - N/A   Mostly Cloudy
10:58 AM 75.2 °F 52.3 °F 45% 30.08 in 10.0 mi WSW 6.9 mph - N/A   Clear
11:58 AM 79.7 °F 45.1 °F 29% 30.06 in 10.0 mi WSW 9.2 mph - N/A   Clear
12:55 PM 82.4 °F 44.6 °F 26% 30.04 in 10.0 mi WSW 12.7 mph - N/A   Clear
12:58 PM 82.0 °F 44.2 °F 26% 30.04 in 10.0 mi WSW 9.2 mph - N/A   Clear
1:58 PM 84.4 °F 39.7 °F 21% 30.01 in 10.0 mi WSW 9.2 mph 19.6 mph N/A   Clear
2:58 PM 86.7 °F 36.3 °F 17% 29.98 in 10.0 mi SW 13.8 mph 23.0 mph N/A   Clear
3:01 PM 86.0 °F 39.2 °F 19% 29.97 in 10.0 mi SSW 11.5 mph - N/A   Clear
3:58 PM 86.5 °F 41.7 °F 21% 29.95 in 10.0 mi SSW 11.5 mph 19.6 mph N/A   Clear
4:58 PM 86.5 °F 41.5 °F 21% 29.94 in 10.0 mi SSW 18.4 mph - N/A   Clear
5:58 PM 85.5 °F 44.1 °F 23% 29.93 in 10.0 mi SW 17.3 mph - N/A   Clear
6:58 PM 81.1 °F 45.5 °F 28% 29.94 in 10.0 mi SSW 13.8 mph - N/A   Clear
7:58 PM 74.3 °F 45.0 °F 35% 29.94 in 10.0 mi South 6.9 mph - N/A   Partly Cloudy
8:58 PM 70.9 °F 46.4 °F 42% 29.95 in 10.0 mi SSW 5.8 mph - N/A   Clear
9:58 PM 69.6 °F 50.7 °F 51% 29.96 in 10.0 mi South 8.1 mph - N/A   Partly Cloudy
11:58 PM 68.4 °F 54.7 °F 62% 29.95 in 10.0 mi South 9.2 mph - N/A   Clear